Location: Montreal
(45.5087°N, 73.5540°W)
Time: 23:27:23
(UTC-04:00)

Envisat - Visible Passes

Search period start: 21 August 2018 00:00
Search period end: 31 August 2018 00:00
Orbit: 764 x 766 km, 98.2° (Epoch: 21 August)

Date Brightness Start Highest point End Pass type
(mag) Time Alt. Az. Time Alt. Az. Time Alt. Az.
21 Aug 5.7 21:24:21 10° SW 21:27:17 15° W 21:30:13 10° NW visible
22 Aug 4.8 20:45:40 10° SSW 20:50:11 32° W 20:54:44 10° NNW visible
23 Aug 3.4 20:08:14 10° S 20:13:17 68° WSW 20:18:23 10° NNW visible
24 Aug 5.6 21:12:25 10° SW 21:15:59 19° W 21:19:35 10° NW visible
25 Aug 4.4 20:34:12 10° SSW 20:38:57 40° W 20:43:44 10° NNW visible
26 Aug 6.0 21:40:40 10° W 21:41:53 11° W 21:43:08 10° WNW visible
27 Aug 5.3 21:00:39 10° SW 21:04:42 24° W 21:08:47 10° NW visible
28 Aug 4.0 20:22:49 10° S 20:27:43 50° W 20:32:40 10° NNW visible
29 Aug 5.8 21:27:58 10° WSW 21:30:34 14° W 21:33:10 10° WNW visible
30 Aug 5.0 20:49:02 10° SSW 20:53:26 29° W 20:57:52 10° NW visible
